Weather in Apastovo

Russia / Republic of Tatarstan     55°12′01″N   48°30′45″E
temp.,
°C
wind,
m/s
gust,
m/s
humid.,
%
clouds,
%
prec.,
mm/h
press.,
hPa
HPBL,
m
23 april, fri
fri2300:00+5s34925 0.0 102473
03:00+4s22925 0.0 102519
06:00+5sse22895 0.0 102581
09:00+11sse33690 0.0 1025520
12:00+14sse22513 0.0 10231243
15:00+14se435211 0.1 10221463
18:00+12ese4765100 0.2 1021306
21:00+10ese2671100 0.2 1020166
24 april, sat
sat2400:00+8ene2577100 0.0 101988
03:00+7ene2382100 0.0 101759
06:00+7e3782100 0.0 1015247
09:00+9ese5680100 0.0 1014581
12:00+8ese4584100 0.3 1013543
15:00+8ese4485100 0.4 1011561
18:00+8ese468680 0.0 1010452
21:00+7ese51191100 0.0 1007363
25 april, sun
sun2500:00+7se5995100 1.5 1004261
03:00+5wsw61291100 2.8 1004775
06:00+5wsw712788 2.2 1005938
09:00+8wsw9115615 2.3 10051592
12:00+9wsw81047100 0.1 10062164
15:00+6wsw8127497 1.1 10101194
18:00+8wsw711528 0.2 1010826
21:00+6wsw71363100 0.3 1013617
26 april, mon
mon2600:00+4sw613690 0.0 1014539
03:00+3sw513730 0.0 1015403
06:00+4ssw6157175 0.0 1015529
09:00+8sw9144979 0.0 10151632
12:00+11sw8124591 0.0 10142098
15:00+11wsw6104899 0.0 10141936
18:00+10wnw225999 0.0 101353
21:00+6ene117072 0.1 101210
27 april, tue
tue2700:00+5e017463 0.0 101114
03:00+4se1176100 0.0 101012
06:00+5sse2575100 0.0 1008182
09:00+10s565392 0.0 1007908
12:00+10sw7960100 0.1 10061474
15:00+7wnw687054 0.3 10091060
18:00+8wsw355712 0.0 1008311
21:00+5wsw2268100 0.0 100913